Weather in Millerovo

Russia / Rostov Oblast     47°49′36″N   39°15′00″E
temp.,
°C
wind,
m/s
gust,
m/s
humid.,
%
clouds,
%
prec.,
mm/h
press.,
hPa
HPBL,
m
19 january, wed
wed1900:00−3w46835 0.0 1012406
03:00−4wsw477996 0.0 1014540
06:00−5w368972 0.0 1014246
09:00−5wsw468663 0.0 1016534
12:00−3w3474100 0.1 1016905
15:00−3nw3477100 0.1 1017646
18:00−6nw369013 0.0 1018150
21:00−7nnw369195 0.1 1019294
20 january, thu
thu2000:00−8nnw3590100 0.0 1020222
03:00−9nw239095 0.0 1020175
06:00−9nw238852 0.1 1020223
09:00−10nw22875 0.1 1021140
12:00−7w23735 0.0 1021406
15:00−5wsw34665 0.0 1019617
18:00−7s228172 0.0 101925
21:00−4s2576100 0.0 1018186
21 january, fri
fri2100:00−4sse4985100 0.0 1017261
03:00−3sse51195100 0.1 1015401
06:00−1sse71497100 0.4 1012535
09:00+2ssw91798100 3.2 1010821
12:00+3sw61298100 0.9 1010549
15:00+3sw61190100 0.9 1009597
18:000w5987100 0.2 1011499
21:00−2w4783100 0.3 1013361
22 january, sat
sat2200:00−2wsw3683100 0.0 1014392
03:00−2ssw3581100 0.0 1014243
06:00−3s248414 0.0 101497
09:00−3ssw26755 0.0 1015235
12:000sw575518 0.0 10151195
15:000wsw3654100 0.0 10151126
18:00−2ssw1171100 0.0 101610
21:00−3ene0075100 0.0 101710
23 january, sun
sun2300:00−3ese2290100 0.0 101837
03:00−3ne2393100 0.0 101895
06:00−3ne4877100 0.0 1018272
09:00−3ne51188100 0.0 1018433
12:00−2ne71181100 0.0 1017836
15:00−3nne91687100 0.5 1016724
18:00−3ne91692100 1.5 1016642
21:00−3nne61295100 3.5 1016511